Location: Doschendorf
(50.0069°N, 11.0602°E)
Time: 11:04:53
(UTC+00:00)

Geosat - Pass Details

Date: 17 November 2019
Orbit: 763 x 766 km, 108.0° (Epoch: 05 December)

Event Time Altitude Azimuth Distance (km) Brightness Sun altitude
Exits shadow 17:18:57 18° 34° (NE) 1,832 5.6 -17.3°
Maximum altitude 17:22:46 76° 118° (ESE) 795 3.9 -18.0°
Drops below altitude 10° 17:27:48 10° 205° (SSW) 2,300 6.9 -18.8°
Sets 17:30:04 0° 207° (SSW) 3,222 7.7 -19.1°
